EDT,Max TemperatureF,Mean TemperatureF,Min TemperatureF,Max Dew PointF,MeanDew PointF,Min DewpointF,Max Humidity, Mean Humidity, Min Humidity, Max Sea Level PressureIn, Mean Sea Level PressureIn, Min Sea Level PressureIn, Max VisibilityMiles, Mean VisibilityMiles, Min VisibilityMiles, Max Wind SpeedMPH, Mean Wind SpeedMPH, Max Gust SpeedMPH,PrecipitationIn, CloudCover, Events, WindDirDegrees
2013-9-1,88,78,68,71,68,66,96,89,59,29.94,29.88,29.77,10,4,0,21,2,41,0.58,5,Fog-Rain,234
2013-9-2,88,76,66,72,67,64,100,86,49,29.93,29.87,29.78,10,5,0,6,2,,0.00,3,Fog-Thunderstorm,284
2013-9-3,86,77,68,68,64,60,94,70,43,29.95,29.85,29.78,10,10,4,10,3,,0.00,1,,334
2013-9-4,82,73,64,67,63,60,94,73,51,30.09,30.03,29.95,10,9,4,7,1,,0.01,1,,354
2013-9-5,84,74,64,67,61,55,93,68,36,30.09,30.07,30.04,10,9,6,6,2,,0.02,0,,301
2013-9-6,81,71,63,62,59,55,87,66,48,30.19,30.11,30.06,10,10,10,8,2,,0.00,1,,29
2013-9-7,81,72,62,63,61,58,90,73,52,30.12,30.05,29.96,10,10,6,8,2,,0.00,2,,210
2013-9-8,86,73,62,68,63,60,94,80,44,30.03,29.97,29.91,10,6,0,6,1,,0.00,1,Fog,337
2013-9-9,86,76,68,68,65,62,93,73,46,30.12,30.06,29.98,10,8,5,7,3,,0.01,1,,9
2013-9-10,86,75,64,68,65,63,100,82,49,30.25,30.19,30.12,10,5,0,7,0,,0.00,1,Fog,215
2013-9-11,87,76,66,70,67,65,93,78,53,30.19,30.13,30.06,10,8,3,9,1,,0.00,2,,251
2013-9-12,88,77,68,72,68,65,96,81,49,30.07,29.96,29.82,10,6,0,12,2,,0.11,2,Fog-Rain-Thunderstorm,281
2013-9-13,82,71,59,63,56,50,84,60,35,29.90,29.81,29.78,10,10,10,9,4,17,0.00,2,,329
2013-9-14,75,64,54,55,50,47,87,64,45,30.10,30.01,29.91,10,10,10,10,3,,0.00,1,,19
2013-9-15,77,64,53,62,56,51,94,80,57,30.21,30.16,30.10,10,8,0,6,1,,0.00,3,Fog,225
2013-9-16,84,70,59,63,59,57,100,79,42,30.17,30.12,30.04,10,6,1,9,3,,0.01,3,,322
2013-9-17,71,66,61,57,54,51,81,65,53,30.30,30.23,30.16,10,10,10,13,6,24,0.00,8,,39
2013-9-18,70,63,57,59,53,50,82,69,56,30.33,30.24,30.15,10,10,10,8,4,,0.00,7,,44
2013-9-19,79,70,62,63,60,57,87,76,58,30.17,30.11,30.06,10,10,10,6,1,,0.00,6,Rain,55
2013-9-20,84,72,62,66,63,61,100,82,49,30.09,30.01,29.89,10,6,0,8,1,,0.00,4,Fog,89
2013-9-21,70,67,64,68,65,62,100,91,83,29.90,29.79,29.69,10,5,1,12,4,25,1.07,8,Rain,210
2013-9-22,77,67,57,63,54,51,100,70,40,29.90,29.80,29.71,10,10,10,7,4,,0.01,2,,11
2013-9-23,71,63,55,59,54,49,94,76,57,30.08,30.00,29.90,10,9,2,7,1,,0.00,5,,30
2013-9-24,75,67,59,59,57,55,93,75,51,30.06,29.99,29.91,10,9,6,5,0,,0.00,4,,135
2013-9-25,66,62,57,63,59,56,100,90,73,29.96,29.91,29.85,10,6,1,6,1,,0.23,7,Rain,50
2013-9-26,75,65,57,60,55,48,100,79,40,30.02,29.94,29.86,10,7,0,7,2,,0.00,5,Fog,17
2013-9-27,75,63,51,56,53,50,94,72,45,30.16,30.10,30.03,10,9,2,8,3,,0.00,2,,28
2013-9-28,72,63,55,55,53,51,90,73,51,30.24,30.18,30.15,10,10,10,9,3,,0.00,5,,48
2013-9-29,72,62,53,57,53,50,90,75,55,30.19,30.11,30.02,10,10,9,6,1,,0.00,5,,48
2013-9-30,75,64,55,58,55,50,93,71,46,30.08,30.03,29.97,10,10,6,5,1,,0.01,5,,219